Wind_Speed
36 37 38 38 38 38 38 38 38 39 40 40 40 39 37 36 35 37 42 50 54 55 54 53 52 51 51 51 51 52 52 52 52 52 53 54 55 56 57 58 61 63 64 60 55 53 52 51 48 44 41 40 40 42 43 44 44 44 44 43 42 42 41 41 40 39 38 36 34
37 37 37 37 36 37 37 37 37 39 39 39 39 38 37 37 36 37 42 49 53 54 54 53 52 52 52 52 52 52 52 52 52 51 51 52 52 53 54 55 57 59 59 57 54 53 52 50 46 42 39 38 39 40 42 43 44 44 44 43 42 41 41 41 40 39 37 35 34
38 37 36 35 35 36 37 37 38 39 39 39 39 38 37 38 38 38 41 47 52 55 56 55 54 54 54 54 54 53 53 53 53 52 51 51 52 52 53 53 54 54 54 54 54 54 52 49 45 42 39 38 39 41 42 44 44 43 42 42 41 41 41 41 39 38 37 35 34
36 36 35 35 36 37 38 38 39 39 40 40 38 37 37 39 40 38 39 44 51 55 57 57 56 56 55 56 56 55 54 53 53 52 51 52 53 54 54 53 51 49 49 52 54 54 52 50 47 44 42 40 40 42 43 44 43 41 40 40 40 41 41 41 39 38 37 36 35
33 34 35 36 37 38 39 39 39 40 41 40 38 37 38 40 40 39 38 42 49 55 58 59 58 57 56 55 55 54 53 52 50 49 48 50 52 53 53 52 49 46 46 49 52 53 52 52 50 48 45 43 42 43 43 42 41 39 38 39 40 41 41 41 39 38 37 36 35
32 34 35 36 37 38 39 39 40 40 40 39 38 38 39 41 40 38 38 42 48 55 59 61 60 57 54 51 49 48 47 46 44 42 41 43 45 46 47 47 46 45 45 47 50 52 54 55 54 51 47 45 44 44 43 41 39 38 38 40 41 42 42 41 40 39 38 37 36
32 34 35 36 37 39 39 39 40 40 39 38 38 39 40 40 37 36 38 42 47 52 56 57 55 51 46 44 42 40 39 38 37 36 35 34 35 36 37 39 41 42 44 47 50 53 56 57 55 52 49 47 46 45 43 41 39 39 40 42 43 43 43 42 41 40 39 38 36
31 32 34 36 38 40 40 40 39 39 38 38 38 39 39 37 33 34 37 41 44 47 48 48 45 42 39 39 38 36 33 32 33 33 32 31 31 32 33 34 37 40 44 48 52 55 56 56 53 51 49 48 46 45 43 41 41 42 43 44 45 45 44 43 42 41 39 38 37
30 31 33 35 38 40 40 39 38 38 38 38 38 38 37 34 30 31 35 39 41 42 42 42 41 40 39 39 38 35 31 29 31 34 35 34 34 35 35 36 36 39 43 47 52 54 54 53 51 49 48 47 46 45 43 42 42 44 45 45 45 45 44 43 42 41 40 38 37
30 30 32 35 39 40 40 38 37 37 37 36 34 33 33 31 29 29 31 35 37 38 39 41 42 42 41 40 38 36 34 32 33 37 40 40 38 39 40 40 38 39 42 47 51 53 52 51 49 48 47 46 45 43 43 42 43 44 44 45 45 44 44 44 43 41 40 39 38
30 30 31 35 39 40 39 38 37 37 36 33 30 28 27 27 28 28 28 31 35 37 39 41 42 42 41 39 38 37 36 35 36 41 45 44 40 39 41 42 40 38 41 46 49 50 49 49 47 46 45 44 43 42 42 41 42 43 43 44 44 44 44 44 43 41 40 39 39
30 30 32 36 39 39 38 38 37 37 35 32 28 25 24 24 26 27 27 29 33 36 38 40 40 40 39 37 36 36 37 39 41 45 48 47 40 37 37 39 38 37 39 44 45 46 46 46 45 45 44 43 42 41 41 41 41 42 43 43 44 44 44 43 42 41 40 40 39
30 31 33 36 38 38 38 38 37 36 35 32 29 26 24 24 25 25 27 29 31 34 36 38 38 39 38 37 35 35 37 40 43 46 47 46 40 36 35 36 35 36 37 40 42 43 43 43 43 43 43 42 42 41 40 40 41 41 42 43 44 44 44 43 42 42 41 40 40
30 32 34 36 36 37 38 38 37 36 35 33 31 28 27 26 26 26 27 28 30 32 34 36 37 38 39 39 37 36 36 37 40 41 42 42 40 37 36 36 36 37 38 40 42 43 42 42 41 41 42 42 41 41 40 40 41 41 42 43 43 43 43 43 42 42 41 40 40
30 32 34 34 35 37 39 39 37 36 35 34 32 30 29 28 28 28 28 30 31 32 33 34 36 37 39 39 39 38 37 37 38 38 39 39 40 40 40 40 40 41 42 43 44 44 43 42 41 40 40 41 41 41 41 41 41 41 42 42 43 43 43 43 42 41 40 40 40
31 32 32 33 35 37 39 39 38 36 35 34 33 32 30 29 29 29 31 32 33 33 33 35 36 38 39 40 40 40 40 40 41 41 41 41 42 42 42 44 45 46 47 47 46 45 44 42 41 40 39 40 40 41 41 42 42 42 42 42 42 43 42 42 41 40 40 40 40
33 32 31 32 34 37 39 39 38 36 35 34 33 32 31 30 30 32 33 34 34 35 35 36 38 39 41 42 43 43 43 44 44 44 44 43 43 43 44 46 48 48 48 47 46 45 44 43 41 39 39 39 40 41 42 42 43 42 43 43 42 42 41 40 40 40 40 40 39
32 31 31 32 34 37 39 40 38 37 35 33 32 32 32 31 32 34 35 35 34 35 36 37 38 39 40 42 43 44 44 44 44 44 44 44 43 43 44 46 48 48 47 45 45 44 43 41 39 38 39 39 41 42 42 43 43 43 43 42 41 40 40 40 40 41 41 40 39
30 30 31 32 33 35 37 39 39 37 35 33 32 32 32 33 34 34 34 34 33 34 35 36 36 36 37 38 39 40 41 41 42 42 43 43 43 43 44 45 46 45 44 43 43 42 40 38 38 38 39 40 41 42 42 43 43 43 42 42 41 40 40 40 41 41 40 39 38
29 29 30 31 32 33 35 37 38 36 34 33 33 33 34 34 34 34 33 32 32 34 35 35 35 35 35 35 36 36 37 38 39 39 40 41 42 43 44 44 44 43 42 41 39 38 37 37 38 39 40 40 41 42 43 44 44 43 42 41 41 41 41 42 42 41 39 37 36
28 27 27 28 29 31 33 34 34 34 33 33 34 35 35 35 34 32 31 31 32 33 35 35 35 35 35 36 36 36 36 36 37 38 39 40 41 42 43 42 42 41 40 39 37 37 37 39 40 40 40 40 41 43 44 44 44 44 43 42 42 43 43 43 41 39 36 34 33
27 27 26 26 26 27 29 30 30 29 30 31 34 36 36 35 32 31 30 30 31 33 34 35 35 36 36 37 37 37 37 38 38 39 40 40 41 42 42 42 41 41 40 39 38 39 40 41 41 42 42 42 43 44 45 45 45 45 44 44 43 42 41 39 36 34 31 30 29
27 27 26 26 25 24 25 27 27 27 28 29 31 34 36 35 33 31 31 32 32 33 34 34 35 36 37 38 38 39 40 40 40 41 41 42 42 42 42 42 42 41 41 41 41 42 43 43 43 44 44 45 45 45 45 45 45 45 44 43 41 38 35 32 30 28 27 25 24
24 25 26 27 27 26 26 26 26 27 27 27 28 31 34 34 34 34 34 35 35 35 35 35 36 37 37 38 39 40 40 40 41 41 42 42 42 42 42 42 42 42 42 43 43 44 45 45 46 46 46 45 45 45 44 43 41 40 39 38 36 33 30 27 25 24 22 21 21
18 20 23 26 29 30 30 29 29 28 26 25 24 26 29 31 33 34 34 35 35 35 36 36 37 38 39 39 40 40 40 39 39 40 40 41 41 41 42 43 43 44 44 45 46 47 47 47 48 47 45 43 41 41 40 38 36 35 34 33 31 29 26 25 23 21 20 20 20
15 15 17 22 26 29 30 30 29 26 24 22 20 19 21 23 26 28 29 30 31 32 34 35 36 37 38 38 38 39 39 39 39 39 40 40 41 42 42 43 43 44 45 47 47 48 47 47 45 43 41 39 38 37 36 34 33 32 31 29 27 26 24 23 22 21 21 20 21
28 23 19 16 17 21 24 26 25 24 22 20 18 16 16 17 18 19 21 22 24 26 28 30 31 32 32 32 33 34 35 36 37 38 38 39 40 41 42 42 42 42 43 45 45 45 44 43 41 39 38 37 36 35 34 33 32 31 29 28 26 25 24 23 22 21 21 21 21
33 32 29 25 21 17 15 16 18 19 20 20 19 17 16 15 14 15 15 17 19 21 23 25 25 25 24 24 24 26 28 30 31 32 33 34 35 36 36 37 36 37 38 39 40 40 40 39 38 36 35 35 34 34 35 35 33 32 30 28 27 26 24 23 22 22 21 21 21
29 29 29 29 28 26 23 18 14 11 10 11 13 15 16 15 15 16 16 17 20 21 22 23 23 22 20 18 17 18 19 20 21 23 25 27 28 30 30 31 31 32 33 34 35 36 36 36 36 35 34 33 33 34 35 35 35 33 32 30 28 27 25 24 23 22 22 22 22
25 25 25 25 25 25 24 23 22 19 16 12 8 6 7 9 13 16 18 20 22 23 23 23 23 23 20 17 16 16 16 16 16 17 19 22 25 27 29 29 29 29 30 31 33 34 35 36 36 35 34 34 34 35 35 35 35 34 32 31 29 28 27 25 24 23 23 23 24
21 20 19 19 20 20 20 20 19 19 18 17 16 14 10 5 2 8 13 16 19 21 22 22 23 23 22 20 19 18 18 19 19 19 20 22 25 27 29 29 28 28 28 30 32 33 35 36 36 35 35 36 36 36 36 35 35 34 33 32 31 30 29 28 27 27 26 26 25
21 18 16 16 15 15 15 14 14 14 13 13 13 13 13 12 9 4 1 6 10 14 17 20 21 22 23 23 23 23 23 23 24 24 24 25 27 29 30 29 28 27 28 30 32 34 35 35 36 37 37 38 37 36 36 35 35 35 35 35 34 33 32 32 32 30 28 26 25
26 23 20 18 16 14 12 11 10 9 9 8 8 9 10 11 10 9 7 4 1 4 8 11 15 19 21 23 24 25 26 26 27 28 28 29 30 31 31 31 29 28 28 30 33 35 36 37 37 38 38 37 36 35 35 35 35 35 36 35 35 34 34 33 32 30 27 25 25
31 29 27 25 22 20 17 15 13 10 8 7 6 7 8 9 9 9 8 7 5 4 2 2 5 9 13 17 20 22 24 26 27 28 29 30 31 31 31 31 31 31 31 31 33 35 36 37 37 37 36 35 35 34 34 35 35 35 35 34 33 33 31 30 28 26 24 24 24
32 31 30 29 28 26 24 22 20 17 14 12 10 9 8 8 8 8 8 7 6 5 4 3 2 1 3 6 9 12 15 18 20 23 25 27 28 29 30 30 31 31 32 33 34 35 35 35 35 35 34 34 34 34 34 34 34 34 33 32 30 29 27 26 24 23 23 22 21
31 30 30 29 28 28 27 26 24 23 21 19 17 15 13 10 9 8 8 8 7 5 3 3 2 2 2 2 3 4 6 8 10 14 17 20 23 25 26 27 28 29 31 32 32 33 33 33 33 32 32 32 31 31 32 31 31 30 29 28 26 25 24 23 22 21 21 20 19
29 29 29 28 28 27 27 26 25 25 24 23 22 20 18 15 13 11 9 8 7 6 4 3 2 2 3 3 3 3 3 3 5 7 10 13 16 18 21 22 24 26 27 27 27 27 27 28 27 27 27 27 27 27 27 27 26 25 24 24 23 23 22 21 21 20 20 19 19
28 27 27 27 27 27 26 26 25 25 24 23 22 21 20 18 16 14 12 10 9 8 6 4 2 1 1 1 2 2 2 2 3 4 5 8 10 13 15 18 20 21 22 22 22 21 21 21 21 22 22 23 23 24 24 24 23 23 22 22 22 22 21 21 21 20 20 20 20
25 25 25 25 25 25 25 25 25 24 24 23 22 20 19 18 17 16 14 13 12 10 9 7 6 4 3 2 1 2 3 3 3 2 3 4 6 8 11 14 16 17 17 17 17 17 17 18 18 18 19 19 20 21 21 22 22 22 22 23 23 23 22 22 22 21 21 20 20
23 23 23 23 23 23 23 24 24 23 23 22 21 20 19 18 17 16 15 13 12 11 10 9 8 7 6 5 4 3 4 5 5 4 3 3 4 5 8 11 13 14 15 15 15 15 16 17 17 17 17 18 18 19 20 21 22 23 23 24 24 24 23 23 22 21 21 21 20
20 21 21 21 21 21 21 21 21 21 21 21 21 20 20 18 17 16 14 13 12 11 10 9 8 8 7 6 5 3 4 5 6 6 6 5 5 5 7 10 13 14 15 15 15 16 16 17 17 18 18 18 19 19 20 22 23 24 24 24 23 23 23 22 22 21 21 21 20
Wind_Direction
239 237 236 235 234 234 233 231 230 231 234 237 241 244 242 230 214 200 193 192 193 193 194 195 196 196 196 196 196 196 196 197 197 200 202 204 206 207 207 206 203 198 196 195 196 199 202 207 214 219 222 223 223 223 223 222 222 222 222 222 223 223 225 226 228 229 229 229 227
237 236 235 234 233 233 232 231 231 232 234 236 240 242 239 226 211 199 194 194 195 196 197 198 200 202 202 201 201 200 199 198 198 200 201 203 203 203 202 201 198 197 196 197 199 202 204 208 214 219 223 224 225 225 224 224 223 223 223 223 224 225 226 228 229 230 230 229 226
233 233 233 233 232 231 231 230 230 231 233 236 238 239 234 222 209 199 194 195 197 198 198 199 201 203 203 203 203 202 201 200 200 200 199 199 198 196 193 192 192 195 197 200 202 203 205 208 214 220 225 226 227 226 226 225 224 223 223 224 225 227 228 229 230 230 229 228 225
229 229 230 230 229 228 228 228 229 230 233 235 236 234 228 218 207 199 195 193 195 197 198 199 201 202 202 202 201 201 201 201 200 198 197 195 193 190 189 191 194 197 199 200 201 202 203 207 215 222 227 229 229 228 227 227 226 225 225 226 227 228 229 230 230 229 227 225 222
227 226 227 227 226 226 227 228 229 230 232 233 232 228 221 211 203 198 194 191 191 193 197 200 201 200 199 198 199 199 200 200 199 198 196 195 193 192 193 195 199 200 200 199 198 199 203 208 216 224 229 232 231 230 229 229 228 227 227 228 229 230 231 230 229 227 224 222 220
226 226 226 226 226 226 227 229 229 230 230 230 226 221 212 203 197 194 192 190 189 191 195 198 199 198 196 195 195 196 197 198 199 200 200 199 198 198 200 201 202 202 200 198 197 199 205 211 218 225 230 232 232 232 231 230 229 229 229 230 231 232 231 230 228 225 222 220 218
227 227 226 226 226 227 228 230 230 229 227 225 220 214 204 194 189 188 189 191 191 192 194 196 197 197 197 196 194 194 195 198 199 200 199 198 198 198 199 201 201 201 199 199 201 204 209 214 220 226 230 232 232 232 232 231 229 228 229 230 232 232 231 229 226 223 220 218 217
230 229 228 226 226 227 229 230 229 226 223 219 214 206 197 188 182 181 184 188 190 191 192 194 196 199 202 203 200 199 199 201 200 197 194 191 189 189 192 196 200 202 203 204 207 210 214 219 223 227 229 230 231 231 231 229 227 227 228 230 232 231 230 227 224 221 219 218 216
232 230 228 225 224 226 228 228 226 222 218 214 208 201 194 187 181 177 178 182 184 186 189 193 197 200 203 205 205 206 207 207 203 197 190 186 183 184 186 192 200 206 210 211 213 215 218 221 224 226 228 229 229 230 229 228 227 227 228 230 231 230 227 224 222 220 219 218 216
232 230 224 218 220 223 225 224 220 217 214 210 204 199 196 194 191 184 177 175 177 181 186 190 194 196 198 201 203 205 207 209 206 200 193 187 185 184 186 191 200 209 215 216 216 217 219 221 223 225 227 228 229 228 228 226 226 227 228 229 229 227 224 222 221 220 219 218 217
231 228 220 213 215 219 221 219 215 212 209 206 202 200 202 203 204 199 189 180 179 182 187 190 192 194 196 198 200 201 203 205 206 203 197 192 189 189 190 193 200 210 217 216 215 215 216 218 221 223 225 227 227 227 226 226 226 226 227 227 226 224 222 220 219 219 218 218 217
231 226 217 211 212 215 216 213 211 208 205 201 199 201 205 208 211 211 206 197 192 191 193 194 196 198 199 200 201 202 203 203 204 203 200 195 194 194 196 197 201 209 216 216 213 212 214 216 219 222 224 225 226 226 226 225 225 225 225 224 223 222 220 219 218 218 217 218 218
229 224 216 210 211 212 212 210 208 206 203 199 199 201 205 209 213 215 215 213 209 206 205 205 206 208 208 208 207 207 208 208 207 204 201 198 198 199 201 201 203 207 213 217 216 213 213 215 218 221 223 224 225 225 225 225 224 224 223 222 221 220 219 219 218 218 217 218 219
226 219 214 211 210 210 209 209 208 206 203 200 200 203 206 209 212 215 218 220 220 219 218 217 216 216 216 216 214 212 211 211 209 207 204 203 204 205 206 206 207 208 213 218 220 218 216 216 218 220 222 224 225 225 225 225 224 223 222 221 220 219 218 218 218 218 218 219 220
217 211 209 209 208 207 207 208 208 206 204 202 203 205 208 211 213 215 218 221 223 223 222 220 218 217 218 218 217 215 212 210 209 208 208 209 210 211 212 212 212 213 216 219 221 221 219 218 219 221 222 224 225 226 225 225 224 223 222 220 219 218 218 218 218 219 219 221 222
203 202 204 206 206 206 207 208 208 207 205 204 205 208 211 214 216 218 220 221 221 221 219 216 214 214 214 214 215 214 213 211 210 209 210 211 213 214 216 217 217 217 218 219 220 220 220 220 220 221 223 224 226 226 225 224 223 222 221 220 219 218 218 218 219 220 221 223 225
196 198 203 205 206 206 207 208 208 208 206 204 205 208 212 216 219 221 221 219 218 217 216 214 213 211 210 209 210 211 212 211 211 211 211 212 214 216 218 220 219 219 219 219 219 219 219 220 221 222 223 224 225 225 225 224 222 221 220 219 218 218 218 219 220 222 224 225 227
193 196 198 202 206 208 209 209 209 209 208 206 207 209 213 217 220 221 220 220 219 217 216 215 213 211 208 206 207 209 211 212 212 213 213 214 216 218 220 220 220 219 219 219 219 219 219 219 221 222 223 224 224 224 223 222 221 220 219 218 217 217 218 219 221 223 224 226 228
191 190 191 196 203 208 210 211 211 211 211 210 210 212 214 217 220 221 222 222 222 221 220 218 215 212 210 209 209 210 211 212 213 214 215 216 217 219 220 220 220 219 219 219 219 218 218 219 220 221 222 222 222 221 221 221 220 219 217 216 216 217 219 220 222 223 224 224 227
190 186 185 191 198 204 208 210 211 212 213 214 215 216 218 219 221 223 225 225 224 223 222 220 217 215 213 211 210 210 211 213 215 216 217 217 218 219 220 220 220 220 220 219 218 217 217 218 219 220 220 219 219 219 219 218 217 216 216 216 216 218 219 221 222 222 222 223 224
190 188 186 187 190 195 200 205 207 210 212 215 218 220 221 221 223 225 226 226 224 222 221 220 218 216 214 213 211 210 211 213 215 217 218 219 219 220 221 221 221 221 220 218 217 216 216 217 217 217 216 216 216 216 215 215 214 214 215 216 217 218 220 221 221 220 219 220 221
188 190 190 191 191 192 194 197 202 207 210 213 214 217 219 221 223 225 226 224 221 219 218 218 217 216 215 213 211 210 210 211 213 215 218 219 219 220 221 221 221 220 219 217 215 215 215 215 215 215 214 212 212 211 211 211 211 212 214 215 216 216 216 216 215 214 213 214 215
185 190 194 196 198 197 195 195 199 205 208 207 205 206 210 216 220 223 223 221 219 217 216 216 216 216 215 213 211 210 209 210 212 214 217 218 219 219 219 220 220 219 218 216 215 215 215 215 214 212 210 208 207 207 207 208 209 210 211 212 212 211 208 207 206 206 207 208 211
176 184 190 196 199 200 198 197 200 202 203 202 199 198 200 206 210 213 214 215 214 214 214 215 215 215 215 213 212 211 211 212 214 215 216 216 216 216 216 216 216 217 217 217 217 216 216 214 212 209 206 204 203 203 204 204 204 204 205 206 205 203 201 200 200 202 205 209 213
153 164 173 181 189 195 199 200 200 201 201 201 198 195 194 196 198 200 202 204 205 207 209 211 212 212 212 212 212 212 212 213 214 214 214 212 212 212 212 212 213 214 215 216 217 216 214 211 207 204 202 200 199 199 198 198 196 197 198 199 198 197 197 199 201 204 209 214 219
101 121 139 152 167 178 187 192 195 195 193 191 189 186 184 185 189 192 194 195 195 196 199 202 204 205 205 205 205 206 207 208 208 208 208 207 207 208 209 209 209 210 211 212 212 210 208 206 205 202 200 196 194 193 192 191 191 192 193 195 196 197 200 203 205 209 214 218 222
62 67 80 105 137 155 165 173 177 177 176 175 172 167 165 169 176 182 186 188 189 190 192 193 194 195 195 196 197 198 199 199 200 201 202 203 204 205 206 207 208 209 209 210 209 208 208 208 206 203 198 194 191 190 191 192 192 192 193 196 199 203 206 208 211 214 217 222 225
51 53 57 63 73 91 116 140 154 163 169 171 169 163 158 159 164 170 178 185 190 193 193 191 189 187 186 188 190 192 193 195 196 198 200 201 203 204 205 207 208 210 210 211 210 210 210 210 208 203 197 192 189 190 193 195 195 196 199 203 207 210 212 215 217 220 223 227 231
50 50 50 51 54 58 63 71 84 106 132 154 164 166 166 166 169 173 179 187 195 199 199 196 191 188 185 185 187 190 192 194 197 200 203 205 207 208 208 209 210 211 211 211 210 209 207 205 203 201 199 196 193 193 194 196 198 201 205 209 213 216 218 221 224 227 229 233 238
50 50 50 51 51 51 50 51 52 54 56 60 72 113 154 174 184 187 190 194 199 202 203 202 199 197 196 197 199 202 204 206 210 213 215 215 215 215 215 214 212 211 210 209 207 203 199 196 196 198 201 202 200 200 200 202 205 209 213 216 219 221 223 226 228 231 234 238 244
49 49 50 51 51 52 51 50 48 47 45 45 44 45 47 56 163 199 204 206 208 209 209 208 206 205 205 208 212 214 216 218 219 223 226 226 225 224 222 219 215 211 208 205 201 198 195 193 194 198 202 205 206 208 210 212 215 217 220 223 225 227 228 230 232 234 238 242 246
48 48 49 49 49 50 51 52 51 49 46 42 37 34 34 38 42 41 243 226 224 223 221 220 219 217 215 214 215 217 218 220 221 223 225 227 228 228 227 225 222 215 208 202 198 195 194 195 198 201 204 208 211 214 217 220 222 224 226 228 229 231 233 234 235 236 239 243 245
49 49 49 49 48 47 46 46 46 45 40 34 26 19 20 28 36 39 36 25 326 247 237 235 232 231 229 226 223 221 220 220 221 222 224 225 228 230 231 231 229 226 219 210 203 199 199 200 203 206 209 212 215 219 221 224 226 227 229 231 233 235 236 237 237 237 238 240 241
47 48 48 48 48 47 46 45 44 41 37 30 21 14 12 17 25 32 35 32 31 27 6 286 249 241 237 235 232 230 227 225 224 224 225 227 229 232 234 236 236 234 231 225 217 212 209 209 211 213 216 219 222 225 227 228 230 231 232 234 235 236 236 236 234 233 233 232 233
45 45 45 46 46 46 46 45 44 43 42 40 37 31 23 17 15 16 16 12 13 17 20 15 0 303 252 241 237 236 235 234 232 231 231 232 234 236 237 238 238 237 235 232 228 224 222 222 223 225 228 230 232 232 232 232 233 233 234 234 233 231 229 226 224 222 222 222 223
42 42 42 42 42 43 43 43 44 44 44 44 43 40 36 31 23 15 5 357 354 353 350 339 329 319 305 282 260 246 240 238 237 236 236 236 236 236 236 235 234 233 231 229 228 228 228 230 232 234 235 235 235 234 233 232 231 230 228 226 223 218 215 212 210 209 210 210 211
42 41 40 40 39 39 39 40 41 42 43 43 43 41 40 38 36 31 22 10 5 359 344 314 286 270 268 270 265 251 237 232 231 231 232 232 233 233 232 229 227 225 224 223 223 225 227 229 231 232 232 231 230 228 226 223 221 218 214 211 207 203 200 198 197 196 196 196 196
43 42 40 39 38 37 36 36 36 37 38 39 39 39 39 38 38 37 35 31 27 23 16 2 341 293 254 242 225 208 197 192 197 211 219 222 225 226 226 224 220 218 217 216 216 217 218 219 219 220 220 220 219 218 215 211 207 203 199 195 192 189 187 186 185 185 184 183 182
44 43 42 40 38 36 34 33 33 33 34 34 35 36 36 36 36 36 36 36 35 33 30 27 25 25 28 45 94 134 141 140 140 153 182 200 208 213 215 214 209 206 204 202 201 201 202 202 203 204 206 207 208 206 203 199 194 190 187 185 182 180 178 178 177 176 175 174 174
42 43 42 41 38 36 33 31 30 30 30 30 31 31 32 32 32 32 32 32 33 33 32 31 29 28 29 36 53 88 116 124 123 122 128 145 167 188 197 197 192 187 184 183 184 186 187 188 189 190 192 194 195 195 193 189 185 181 180 178 177 175 173 173 172 172 171 172 172
36 37 38 39 38 35 33 31 29 27 26 26 26 27 27 28 28 28 28 27 28 28 29 29 28 26 26 29 39 65 99 118 123 124 126 132 143 164 181 184 179 174 171 172 175 178 180 180 180 180 182 183 185 185 184 182 180 178 176 175 174 172 171 170 170 171 172 173 175
Height
1378 1379 1381 1382 1383 1384 1385 1386 1387 1389 1390 1391 1391 1393 1394 1395 1395 1395 1394 1394 1394 1396 1399 1401 1404 1407 1410 1413 1415 1418 1421 1423 1425 1427 1429 1431 1433 1435 1437 1439 1442 1445 1448 1451 1455 1458 1461 1465 1467 1470 1471 1473 1474 1476 1477 1478 1480 1481 1483 1484 1486 1488 1490 1491 1492 1494 1495 1496 1498
1376 1377 1379 1380 1381 1383 1384 1385 1386 1387 1388 1389 1390 1391 1392 1393 1393 1393 1392 1392 1393 1395 1397 1401 1404 1407 1410 1412 1416 1418 1421 1423 1425 1427 1428 1430 1432 1434 1436 1439 1442 1445 1448 1451 1454 1457 1460 1463 1466 1467 1469 1471 1472 1474 1475 1476 1478 1479 1481 1482 1484 1486 1488 1490 1491 1493 1494 1496 1497
1375 1376 1377 1378 1380 1381 1382 1383 1384 1385 1386 1387 1388 1389 1391 1391 1392 1391 1391 1391 1391 1393 1396 1399 1402 1406 1409 1412 1415 1418 1421 1423 1425 1426 1428 1430 1432 1434 1436 1439 1442 1445 1448 1450 1453 1455 1457 1460 1463 1465 1467 1469 1470 1472 1473 1474 1476 1477 1478 1480 1482 1485 1487 1489 1490 1492 1493 1494 1495
1373 1374 1375 1376 1378 1379 1380 1381 1382 1383 1384 1386 1387 1388 1388 1389 1390 1390 1390 1390 1391 1393 1395 1398 1402 1406 1409 1412 1415 1418 1421 1423 1424 1426 1427 1429 1431 1433 1436 1438 1441 1443 1446 1448 1451 1454 1456 1459 1462 1464 1466 1467 1469 1470 1471 1472 1474 1475 1477 1479 1481 1484 1486 1488 1489 1491 1492 1493 1494
1371 1372 1374 1375 1376 1377 1378 1379 1380 1381 1383 1384 1385 1386 1386 1387 1388 1389 1389 1389 1390 1392 1395 1398 1402 1406 1409 1412 1415 1418 1420 1422 1424 1426 1428 1430 1431 1433 1436 1438 1440 1442 1444 1447 1451 1454 1457 1459 1461 1463 1464 1466 1467 1468 1469 1471 1472 1473 1476 1478 1480 1483 1485 1487 1488 1490 1490 1491 1492
1369 1371 1372 1373 1375 1376 1376 1377 1379 1380 1381 1383 1384 1384 1385 1386 1387 1387 1387 1388 1390 1392 1395 1399 1403 1406 1410 1412 1415 1417 1420 1421 1423 1426 1428 1431 1432 1434 1436 1439 1441 1443 1446 1449 1452 1455 1457 1459 1460 1461 1463 1464 1465 1466 1468 1469 1471 1472 1474 1477 1479 1482 1484 1486 1487 1488 1489 1490 1490
1368 1369 1370 1371 1373 1374 1375 1376 1377 1379 1380 1381 1382 1382 1384 1385 1385 1386 1386 1387 1390 1393 1396 1400 1404 1407 1410 1413 1416 1418 1420 1421 1423 1426 1428 1430 1432 1435 1437 1439 1441 1444 1447 1450 1452 1455 1456 1458 1459 1460 1461 1462 1464 1465 1466 1467 1469 1471 1473 1476 1478 1481 1483 1484 1486 1486 1487 1488 1488
1366 1367 1368 1370 1371 1372 1372 1374 1376 1377 1379 1380 1380 1381 1382 1384 1385 1385 1386 1388 1391 1394 1397 1401 1404 1407 1410 1413 1415 1417 1419 1421 1423 1425 1427 1429 1431 1434 1436 1439 1442 1445 1447 1450 1451 1453 1455 1456 1457 1458 1459 1461 1461 1463 1464 1466 1467 1470 1472 1475 1477 1480 1481 1483 1484 1485 1485 1486 1486
1365 1366 1367 1368 1369 1370 1371 1372 1374 1376 1377 1378 1379 1380 1381 1383 1384 1386 1387 1389 1391 1394 1398 1401 1404 1406 1409 1412 1414 1416 1418 1420 1422 1424 1426 1428 1430 1433 1436 1439 1441 1444 1446 1448 1450 1451 1453 1454 1455 1456 1457 1458 1459 1461 1462 1464 1466 1469 1471 1474 1476 1478 1479 1481 1481 1482 1483 1484 1484
1363 1364 1366 1367 1368 1368 1369 1371 1373 1375 1376 1377 1378 1380 1381 1383 1385 1386 1388 1390 1392 1395 1398 1400 1403 1405 1408 1410 1412 1414 1416 1418 1421 1423 1425 1426 1428 1431 1434 1437 1440 1442 1444 1445 1447 1448 1450 1451 1452 1454 1455 1456 1457 1459 1461 1462 1465 1467 1470 1472 1474 1476 1477 1478 1479 1480 1481 1481 1482
1361 1363 1365 1366 1366 1366 1368 1370 1372 1374 1375 1377 1378 1380 1381 1383 1385 1387 1388 1391 1393 1396 1398 1400 1402 1404 1406 1408 1410 1412 1414 1416 1419 1421 1423 1425 1427 1429 1431 1434 1437 1440 1441 1441 1443 1445 1447 1448 1450 1451 1452 1454 1455 1457 1459 1461 1463 1465 1468 1470 1472 1473 1475 1476 1477 1478 1479 1479 1480
1359 1361 1363 1364 1365 1366 1367 1369 1371 1373 1375 1376 1378 1380 1381 1383 1385 1386 1388 1391 1393 1395 1397 1400 1402 1404 1406 1407 1409 1411 1413 1415 1417 1419 1421 1423 1426 1428 1430 1432 1435 1437 1438 1440 1441 1442 1444 1445 1447 1448 1450 1451 1453 1455 1457 1459 1461 1463 1466 1468 1469 1471 1472 1474 1475 1476 1476 1477 1478
1358 1360 1362 1363 1364 1365 1367 1369 1371 1373 1375 1376 1378 1379 1381 1383 1385 1386 1388 1390 1392 1395 1397 1400 1401 1403 1405 1407 1409 1411 1412 1414 1416 1417 1420 1422 1425 1427 1430 1431 1433 1435 1437 1438 1439 1440 1441 1443 1445 1446 1448 1449 1451 1453 1455 1457 1460 1461 1464 1466 1467 1469 1470 1471 1472 1473 1474 1475 1476
1357 1359 1360 1361 1363 1365 1367 1369 1371 1373 1374 1376 1377 1379 1381 1383 1385 1386 1388 1390 1392 1394 1396 1399 1401 1402 1404 1406 1408 1410 1412 1414 1416 1418 1420 1422 1424 1426 1428 1430 1432 1434 1436 1437 1438 1439 1440 1441 1443 1444 1446 1448 1450 1451 1454 1456 1458 1460 1462 1464 1465 1467 1468 1469 1470 1471 1472 1473 1474
1357 1358 1359 1361 1363 1365 1367 1369 1371 1372 1374 1376 1377 1379 1381 1383 1385 1386 1388 1390 1392 1394 1396 1398 1400 1401 1403 1405 1407 1409 1411 1414 1416 1418 1420 1422 1424 1425 1427 1429 1431 1432 1434 1435 1436 1438 1439 1440 1441 1443 1445 1447 1448 1450 1452 1454 1456 1459 1461 1462 1464 1465 1466 1467 1468 1469 1470 1471 1472
1356 1357 1359 1361 1362 1364 1366 1368 1370 1372 1374 1376 1377 1379 1381 1383 1385 1386 1388 1390 1392 1394 1395 1397 1399 1401 1402 1404 1406 1408 1410 1412 1415 1417 1419 1421 1422 1424 1426 1427 1429 1430 1431 1433 1434 1436 1437 1439 1440 1442 1444 1446 1447 1449 1451 1453 1455 1457 1459 1461 1462 1463 1464 1466 1466 1468 1469 1470 1470
1356 1357 1359 1360 1362 1364 1366 1368 1370 1372 1374 1376 1377 1379 1381 1383 1385 1386 1388 1389 1391 1393 1395 1396 1398 1400 1401 1403 1405 1407 1409 1411 1413 1415 1417 1419 1421 1422 1424 1426 1426 1428 1429 1431 1433 1435 1436 1438 1439 1441 1443 1445 1447 1449 1451 1452 1455 1456 1458 1460 1461 1462 1463 1464 1465 1466 1467 1468 1469
1356 1357 1359 1361 1362 1364 1366 1368 1370 1372 1374 1376 1378 1380 1381 1384 1385 1387 1388 1389 1391 1392 1394 1396 1397 1399 1401 1402 1404 1406 1407 1409 1411 1413 1415 1417 1419 1421 1422 1424 1425 1426 1428 1430 1432 1433 1435 1436 1438 1440 1442 1444 1446 1448 1450 1452 1454 1455 1457 1458 1459 1460 1461 1462 1463 1464 1465 1466 1467
1356 1358 1359 1361 1362 1364 1366 1368 1370 1372 1374 1376 1378 1380 1382 1384 1385 1387 1388 1389 1390 1391 1393 1395 1396 1398 1400 1401 1403 1405 1407 1409 1411 1412 1414 1416 1418 1419 1421 1422 1424 1426 1427 1429 1430 1432 1433 1435 1437 1439 1441 1443 1445 1447 1449 1451 1453 1454 1455 1456 1457 1458 1459 1460 1461 1462 1463 1464 1466
1356 1358 1360 1361 1363 1365 1366 1369 1371 1373 1375 1377 1378 1380 1382 1383 1385 1386 1387 1389 1390 1391 1393 1394 1396 1397 1399 1401 1403 1405 1406 1408 1410 1411 1413 1415 1416 1418 1419 1421 1422 1424 1426 1428 1429 1431 1432 1434 1436 1438 1440 1441 1444 1446 1448 1450 1451 1452 1453 1454 1455 1456 1457 1458 1459 1460 1461 1462 1464
1358 1360 1361 1362 1364 1365 1367 1368 1371 1373 1375 1377 1378 1380 1381 1383 1384 1386 1387 1388 1389 1391 1392 1393 1395 1396 1398 1400 1401 1403 1405 1407 1409 1410 1412 1413 1415 1416 1418 1419 1421 1423 1425 1426 1428 1430 1431 1433 1435 1436 1438 1440 1442 1445 1446 1448 1450 1451 1451 1452 1453 1454 1455 1456 1457 1458 1459 1460 1461
1358 1360 1361 1363 1365 1366 1368 1369 1371 1373 1375 1377 1378 1379 1380 1381 1383 1385 1386 1388 1389 1390 1391 1393 1395 1396 1397 1399 1400 1402 1404 1406 1407 1409 1411 1412 1413 1415 1416 1418 1420 1421 1423 1424 1426 1428 1430 1431 1433 1434 1436 1438 1440 1442 1444 1446 1447 1448 1449 1450 1451 1451 1452 1453 1454 1455 1456 1458 1459
1358 1360 1362 1364 1366 1367 1369 1371 1372 1374 1375 1377 1378 1379 1379 1381 1382 1384 1386 1387 1388 1390 1391 1393 1394 1396 1397 1398 1400 1401 1403 1404 1406 1407 1409 1411 1412 1414 1415 1416 1418 1419 1421 1422 1424 1426 1427 1429 1431 1432 1434 1436 1437 1439 1441 1443 1444 1445 1446 1447 1448 1449 1449 1450 1451 1453 1454 1456 1457
1359 1360 1362 1364 1365 1367 1369 1371 1372 1374 1376 1377 1378 1379 1379 1380 1382 1383 1385 1386 1388 1389 1391 1392 1393 1395 1396 1397 1399 1400 1401 1403 1405 1406 1408 1409 1411 1412 1414 1415 1416 1418 1419 1421 1422 1423 1425 1427 1429 1431 1432 1433 1434 1436 1437 1439 1440 1441 1442 1444 1445 1446 1447 1448 1450 1451 1452 1454 1456
1361 1362 1363 1364 1365 1366 1368 1369 1371 1373 1375 1377 1378 1379 1380 1381 1382 1383 1384 1386 1387 1388 1390 1391 1392 1394 1395 1396 1398 1399 1401 1402 1404 1406 1407 1409 1410 1411 1413 1414 1416 1417 1418 1419 1421 1422 1423 1425 1426 1428 1429 1430 1431 1432 1434 1435 1437 1438 1440 1441 1443 1444 1446 1447 1448 1449 1451 1452 1454
1363 1364 1364 1365 1365 1366 1368 1370 1371 1373 1375 1377 1378 1379 1380 1381 1382 1383 1384 1385 1386 1388 1390 1391 1392 1393 1394 1395 1397 1399 1400 1401 1403 1405 1406 1407 1409 1410 1411 1413 1414 1416 1417 1418 1419 1420 1421 1422 1424 1425 1426 1427 1428 1430 1431 1433 1435 1437 1438 1440 1441 1443 1444 1445 1446 1448 1449 1451 1452
1365 1366 1366 1367 1367 1367 1369 1371 1373 1375 1376 1378 1379 1379 1380 1381 1382 1384 1385 1386 1387 1388 1390 1391 1392 1392 1393 1395 1396 1397 1399 1401 1402 1404 1405 1406 1407 1409 1410 1411 1413 1414 1415 1416 1417 1419 1420 1421 1423 1424 1425 1426 1427 1428 1430 1432 1434 1436 1437 1439 1440 1441 1442 1443 1444 1446 1447 1449 1450
1366 1367 1368 1369 1369 1371 1372 1374 1375 1377 1378 1379 1380 1381 1381 1381 1382 1384 1386 1387 1389 1390 1391 1392 1392 1393 1394 1395 1396 1397 1399 1400 1401 1403 1404 1405 1406 1407 1408 1410 1411 1412 1414 1415 1416 1417 1419 1421 1422 1424 1425 1426 1426 1427 1429 1431 1433 1435 1436 1437 1439 1440 1441 1441 1442 1443 1445 1446 1448
1370 1370 1371 1371 1372 1373 1375 1376 1378 1379 1381 1381 1382 1382 1383 1383 1384 1385 1386 1388 1390 1391 1392 1392 1393 1394 1395 1396 1397 1398 1399 1401 1402 1403 1404 1405 1406 1407 1408 1409 1410 1411 1412 1413 1414 1416 1417 1419 1421 1423 1425 1426 1426 1427 1428 1430 1431 1433 1435 1436 1437 1438 1439 1440 1441 1441 1443 1444 1446
1374 1374 1374 1375 1375 1376 1376 1377 1379 1380 1381 1382 1383 1384 1384 1385 1386 1387 1387 1389 1390 1391 1392 1393 1394 1395 1395 1396 1397 1398 1399 1401 1402 1403 1404 1405 1406 1406 1407 1408 1410 1411 1411 1412 1413 1415 1416 1418 1420 1422 1423 1424 1426 1426 1427 1429 1430 1431 1433 1434 1435 1436 1437 1438 1439 1440 1441 1443 1445
1377 1377 1378 1378 1379 1379 1380 1380 1381 1381 1382 1383 1383 1384 1385 1386 1387 1388 1389 1390 1391 1391 1392 1393 1394 1395 1396 1396 1397 1398 1399 1400 1401 1402 1404 1405 1405 1406 1407 1408 1409 1410 1411 1412 1413 1414 1416 1417 1419 1421 1422 1423 1424 1425 1426 1427 1429 1430 1431 1432 1433 1435 1436 1437 1438 1440 1441 1442 1443
1380 1381 1381 1381 1381 1382 1382 1383 1383 1384 1384 1385 1385 1386 1386 1387 1388 1389 1390 1391 1391 1392 1392 1393 1394 1395 1396 1396 1397 1397 1398 1399 1400 1401 1403 1404 1405 1405 1406 1407 1408 1409 1411 1411 1413 1414 1415 1416 1418 1419 1420 1421 1422 1424 1425 1426 1428 1429 1430 1431 1432 1434 1435 1436 1437 1438 1439 1440 1441
1383 1383 1383 1384 1384 1385 1385 1385 1386 1386 1386 1386 1387 1387 1387 1388 1389 1390 1390 1391 1391 1392 1392 1393 1394 1394 1395 1396 1396 1397 1398 1399 1400 1401 1401 1402 1403 1404 1405 1406 1407 1409 1410 1411 1412 1413 1414 1415 1416 1418 1419 1420 1421 1423 1424 1425 1426 1428 1429 1430 1431 1432 1433 1434 1435 1436 1437 1438 1439
1385 1385 1385 1386 1386 1386 1386 1387 1387 1387 1387 1388 1388 1388 1388 1389 1390 1390 1391 1391 1391 1392 1392 1393 1393 1394 1395 1395 1396 1396 1397 1397 1398 1399 1400 1401 1402 1402 1403 1404 1406 1407 1409 1411 1412 1412 1413 1414 1415 1416 1417 1419 1420 1421 1423 1424 1425 1426 1427 1428 1429 1430 1431 1432 1433 1435 1436 1436 1437
1387 1387 1387 1387 1387 1387 1387 1388 1388 1388 1388 1388 1388 1389 1389 1390 1390 1391 1391 1391 1392 1392 1392 1392 1393 1394 1394 1395 1395 1396 1396 1397 1397 1398 1398 1399 1400 1401 1402 1403 1404 1406 1407 1409 1410 1411 1412 1413 1414 1415 1416 1418 1419 1420 1421 1422 1423 1424 1425 1426 1427 1428 1429 1430 1431 1432 1433 1434 1435
1390 1390 1389 1389 1389 1389 1389 1389 1389 1389 1389 1389 1390 1390 1390 1391 1391 1391 1391 1392 1392 1392 1392 1393 1393 1394 1394 1395 1395 1395 1396 1396 1396 1397 1398 1398 1399 1400 1401 1401 1403 1404 1405 1406 1408 1409 1410 1411 1412 1413 1415 1416 1417 1418 1419 1421 1422 1423 1423 1424 1425 1426 1427 1428 1429 1430 1431 1432 1434
1393 1392 1392 1392 1392 1391 1391 1391 1391 1391 1391 1391 1391 1392 1392 1392 1392 1392 1393 1393 1393 1393 1393 1394 1394 1394 1394 1395 1395 1395 1395 1396 1396 1396 1397 1398 1398 1399 1400 1401 1401 1402 1404 1405 1406 1407 1408 1409 1410 1411 1413 1414 1415 1416 1417 1419 1420 1421 1421 1422 1423 1424 1425 1426 1427 1429 1430 1431 1432
1396 1396 1395 1395 1394 1394 1394 1394 1393 1393 1393 1393 1394 1394 1394 1394 1394 1395 1395 1395 1395 1395 1395 1395 1395 1395 1395 1395 1395 1395 1396 1396 1396 1397 1397 1398 1398 1399 1400 1401 1401 1402 1403 1404 1405 1406 1407 1408 1409 1410 1411 1412 1413 1414 1416 1417 1418 1419 1420 1421 1422 1423 1424 1425 1426 1428 1429 1430 1431
1398 1398 1398 1397 1397 1397 1396 1396 1396 1396 1396 1396 1396 1396 1396 1396 1396 1397 1397 1397 1397 1397 1396 1396 1396 1396 1396 1396 1396 1396 1396 1396 1397 1397 1398 1398 1399 1399 1400 1400 1401 1401 1402 1403 1404 1405 1406 1406 1407 1408 1409 1411 1411 1413 1414 1415 1416 1418 1419 1420 1421 1422 1423 1425 1426 1427 1428 1430 1431
1400 1400 1400 1400 1399 1399 1399 1399 1398 1398 1398 1398 1398 1398 1398 1398 1398 1399 1399 1399 1398 1398 1398 1398 1398 1398 1398 1398 1397 1397 1397 1397 1398 1398 1398 1399 1399 1400 1400 1401 1401 1401 1402 1403 1403 1404 1405 1406 1406 1407 1409 1410 1411 1412 1413 1415 1416 1417 1418 1419 1420 1421 1422 1424 1425 1426 1427 1429 1430
1402 1402 1401 1401 1401 1401 1401 1401 1401 1401 1401 1401 1401 1400 1400 1400 1400 1400 1400 1400 1400 1400 1400 1399 1399 1399 1399 1399 1399 1399 1399 1399 1399 1399 1399 1399 1400 1400 1401 1401 1401 1401 1402 1403 1403 1404 1405 1406 1406 1407 1408 1410 1411 1412 1413 1415 1416 1416 1418 1419 1420 1421 1422 1423 1424 1426 1427 1428 1430